Location: Fort Worth, Tx
(32.7431°N, 97.3695°W)
Time: 06:02:05
(UTC-04:00)

ISS - Visible Passes

Search period start: 16 July 2019 00:00
Search period end: 26 July 2019 00:00
Orbit: 409 x 418 km, 51.6° (Epoch: 16 July)

Date Brightness Start Highest point End Pass type
(mag) Time Alt. Az. Time Alt. Az. Time Alt. Az.
16 Jul -2.0 00:02:05 10° WSW 00:05:08 32° NW 00:08:10 10° NNE visible
16 Jul -1.7 06:34:03 10° NNW 06:37:04 31° NE 06:40:03 10° ESE visible
16 Jul -3.4 23:12:29 10° SW 23:15:47 63° NW 23:19:05 10° NE visible
17 Jul -0.8 05:45:12 10° NNW 05:47:38 19° NE 05:50:03 10° E visible
17 Jul -3.8 22:23:13 10° SW 22:26:30 60° SE 22:29:48 10° NE visible
18 Jul -0.4 00:01:40 10° WNW 00:03:27 14° NNW 00:05:14 10° N visible
18 Jul -0.3 04:56:47 10° N 04:58:07 12° NNE 04:59:27 10° NE visible
18 Jul -3.9 06:31:51 10° NW 06:35:09 75° SW 06:38:26 10° SE visible
18 Jul -1.0 23:11:17 10° W 23:13:56 22° NW 23:16:36 10° NNE visible
19 Jul -3.0 05:42:36 10° NW 05:45:50 51° NE 05:49:03 10° ESE visible
19 Jul -2.1 22:21:23 10° WSW 22:24:31 38° NW 22:27:39 10° NNE visible
20 Jul -2.5 06:33:19 20° SW 06:33:19 20° SW 06:35:30 10° S visible
21 Jul -0.6 22:20:37 10° WNW 22:22:42 15° NNW 22:24:47 10° N visible
